Theta_e
311 311 311 311 311 311 311 311 310 309 308 307 307 308 308 309 309 310 310 310 310 310 311 311 311 311 311 311 311 312 313 315 316 316 316 316 315 314 315 314 314 315 315 315 315 315 315 316 315 315 316 317 319 318 318 317 317 321 329 334 324 318 318 316 318 321 321 319 316 316 317 316 317 317 316 317 316 316 316 316 316 316 315 315 314 314 314 314
311 311 311 311 310 310 309 309 308 308 307 307 307 308 308 309 309 309 310 310 310 310 311 310 310 311 311 311 312 312 314 315 316 318 315 314 314 314 314 314 315 315 316 316 316 315 316 315 315 316 315 317 319 319 320 320 318 319 328 330 321 318 316 314 316 316 317 318 316 317 316 316 317 316 316 316 316 315 316 315 315 315 315 315 314 314 314 314
309 309 309 309 308 308 308 307 307 307 307 307 308 308 308 309 309 309 310 310 310 310 310 311 310 310 311 311 312 313 314 314 317 319 315 313 314 314 314 314 314 314 315 316 317 315 315 315 315 316 316 317 317 318 319 319 318 318 325 327 318 316 315 314 317 316 317 317 316 317 316 316 316 316 316 316 316 315 315 316 315 315 315 315 315 315 314 314
307 307 307 307 307 307 307 307 307 307 307 308 308 308 308 309 309 309 310 310 310 310 310 310 310 311 311 311 312 313 314 317 320 318 315 313 314 314 314 314 313 314 314 316 318 316 315 315 316 316 316 317 316 317 318 317 317 318 323 324 317 315 316 316 317 316 317 317 316 317 316 317 316 316 316 315 316 317 315 315 316 316 316 315 315 314 314 313
307 307 307 307 307 307 307 307 307 308 308 308 308 309 309 309 309 310 310 310 310 310 310 310 310 310 311 311 313 313 315 320 320 315 314 314 314 313 313 314 314 315 316 318 318 317 317 316 316 317 317 318 317 318 318 317 316 317 319 319 316 316 316 316 316 316 316 316 316 316 316 317 317 317 316 316 317 318 316 315 316 316 315 315 314 313 313 312
308 308 308 308 308 307 308 308 308 308 308 309 309 309 309 309 309 310 310 310 310 310 310 310 310 310 311 312 313 315 318 320 318 314 314 314 313 314 314 316 317 318 318 319 318 318 318 317 316 317 317 317 318 318 318 317 316 319 318 316 317 317 317 317 317 317 316 316 316 316 316 316 316 317 317 316 316 317 316 316 315 314 314 313 313 312 312 312
308 308 308 308 308 308 308 308 308 308 308 309 309 309 309 309 310 310 310 310 310 310 310 310 310 310 312 312 314 317 318 318 317 315 314 313 314 315 317 318 319 319 319 318 319 319 318 318 317 317 317 317 317 316 317 317 316 319 319 316 317 317 317 317 317 317 316 316 316 316 316 316 316 317 317 316 316 316 316 315 314 313 313 312 312 312 311 312
309 309 309 308 308 308 308 308 308 308 308 308 309 309 309 309 309 309 309 310 310 310 310 310 310 311 312 313 316 317 317 318 318 317 316 314 316 317 318 319 319 318 318 318 318 318 318 317 317 317 317 317 316 316 316 317 317 318 319 317 317 318 317 317 317 317 317 316 316 316 316 316 316 316 316 315 315 316 315 314 313 313 313 312 312 311 311 312
311 311 310 310 309 309 309 309 309 309 309 309 309 309 309 309 309 309 309 309 310 310 310 310 311 312 313 315 318 318 319 321 319 319 318 317 318 318 318 318 318 318 318 318 318 318 318 317 317 317 317 317 317 316 315 318 318 316 316 316 316 317 316 317 317 317 317 316 316 316 316 316 316 316 316 315 315 315 314 313 313 312 312 312 312 311 312 312
311 311 311 311 311 310 309 309 309 309 309 309 309 309 309 309 309 309 309 309 309 309 310 310 312 313 314 317 319 320 321 321 319 319 318 318 318 318 318 317 317 318 317 318 318 317 317 317 317 317 317 317 317 316 316 318 317 315 316 316 316 317 316 316 317 317 317 316 316 316 316 316 315 316 316 315 314 314 313 313 312 313 312 312 312 312 312 312
310 311 311 311 311 311 311 310 310 309 309 309 309 309 309 309 309 309 309 309 309 309 310 311 313 314 316 317 318 319 319 320 320 319 318 318 318 317 317 317 317 317 318 318 318 317 317 317 317 317 318 316 316 316 315 316 316 315 316 317 317 317 317 316 316 316 316 316 316 316 315 315 314 315 316 315 314 313 313 313 312 313 312 311 312 312 312 312
309 309 310 310 311 311 311 311 311 310 310 309 309 309 309 309 309 309 309 309 309 309 310 313 314 315 316 316 316 317 318 319 320 319 319 318 318 318 317 317 317 317 318 318 318 318 317 317 317 317 317 316 317 317 316 316 316 316 316 318 320 318 318 317 315 316 316 316 316 315 317 319 317 315 316 315 314 313 312 312 312 312 312 312 312 312 312 312
309 309 309 309 310 310 310 311 311 311 310 310 309 309 308 309 309 309 309 309 309 311 312 314 315 316 317 316 316 316 318 319 319 319 319 319 318 318 317 317 317 317 317 317 318 318 317 318 317 317 317 316 317 316 316 316 315 318 315 316 321 322 324 320 315 316 316 316 316 316 320 327 322 314 314 315 314 313 312 312 312 312 312 311 311 311 312 312
308 308 308 308 309 309 310 310 311 311 311 310 310 309 309 309 309 309 309 309 310 312 314 316 317 317 316 316 317 317 318 319 319 319 318 318 318 317 317 317 317 317 317 317 317 317 317 318 316 317 316 316 317 316 318 316 316 319 317 320 322 322 330 325 314 316 317 315 316 316 321 328 323 313 313 314 313 313 313 312 312 312 312 311 311 311 311 312
308 308 308 308 308 309 309 310 310 311 311 311 310 309 309 308 308 308 308 310 312 314 316 317 317 317 317 317 317 317 318 318 318 318 318 318 317 317 317 317 317 317 318 318 318 318 317 317 316 317 316 316 317 317 322 322 321 319 319 330 327 321 332 326 313 315 317 315 314 317 322 326 321 314 313 313 313 313 313 313 312 312 312 311 311 311 311 312
308 308 308 308 308 308 309 309 309 310 310 310 309 309 308 308 308 308 309 311 313 315 316 316 317 317 317 317 317 317 318 317 318 318 318 317 317 317 317 317 318 318 318 318 318 317 317 316 317 317 316 317 319 323 329 329 329 325 321 330 330 323 327 323 315 316 316 315 314 316 322 325 320 314 313 313 312 313 313 313 313 312 312 311 311 311 311 312
308 308 308 307 307 307 308 308 308 309 309 309 308 308 308 308 308 309 311 313 315 316 316 317 319 318 317 317 317 317 318 318 318 317 317 317 317 317 317 318 318 318 318 317 317 317 316 316 317 318 317 317 320 327 331 328 330 331 322 322 326 325 324 322 320 317 314 316 315 315 317 321 321 314 312 313 312 313 313 313 313 313 312 312 311 311 311 311
307 307 307 307 307 307 307 307 307 308 308 307 307 307 308 309 311 312 313 314 315 316 316 317 319 317 317 317 316 317 318 318 318 318 318 317 317 317 317 317 318 318 317 317 317 316 316 316 317 321 320 318 320 324 328 327 331 334 327 324 326 327 325 324 324 319 315 317 318 317 316 318 320 315 312 313 312 312 313 313 313 313 312 312 311 310 310 310
307 307 307 306 306 306 306 306 306 307 307 307 307 308 310 311 313 313 314 315 316 317 317 317 316 316 318 318 317 317 318 318 318 318 318 318 317 317 317 317 318 317 316 318 318 315 316 318 320 323 323 322 320 321 325 327 330 332 331 331 329 327 327 326 323 318 316 318 319 319 319 318 320 318 314 312 313 312 312 312 313 313 312 311 311 310 310 310
307 307 306 306 306 305 306 306 306 306 307 308 309 311 312 314 315 316 315 315 315 315 317 318 316 316 318 319 318 319 319 318 319 319 318 318 318 317 317 317 317 316 317 322 321 315 317 322 324 325 325 324 321 320 321 323 325 324 324 327 328 326 327 327 323 317 315 318 321 321 320 320 322 322 316 313 314 312 311 312 312 313 312 311 311 310 310 309
307 307 306 306 306 306 306 306 306 308 309 311 312 313 314 315 317 319 317 316 315 314 316 317 317 317 318 319 319 319 319 318 319 319 319 318 318 318 318 317 318 319 318 320 319 316 318 323 324 325 323 322 322 321 319 320 321 321 322 323 325 327 327 326 322 317 315 318 324 323 320 321 322 321 317 313 312 311 311 312 312 312 312 311 311 310 310 309
307 307 307 306 306 306 307 308 309 311 312 313 314 314 315 316 317 318 318 318 318 317 318 317 317 318 318 319 320 319 319 319 319 319 319 318 318 318 318 318 320 322 320 318 319 319 321 322 322 320 318 320 323 322 321 322 321 322 325 324 326 329 327 326 322 317 316 318 325 326 321 322 322 320 317 313 311 312 312 312 312 313 312 311 311 310 310 309
307 307 307 307 307 308 309 311 312 313 314 314 315 315 317 318 318 318 318 319 319 318 318 319 318 317 318 319 320 319 319 319 319 319 319 318 318 318 317 318 320 321 321 321 322 323 324 326 321 316 317 321 323 322 321 323 324 325 326 325 327 328 325 327 324 317 317 319 322 324 321 321 319 319 318 313 311 312 312 312 313 313 312 312 311 311 310 309
307 307 308 308 309 310 312 313 313 314 314 314 315 315 317 319 318 319 318 317 318 317 316 318 319 318 318 318 319 320 319 319 319 319 319 318 318 318 317 318 319 320 321 320 321 322 325 326 320 316 320 323 323 323 323 323 325 327 327 325 327 327 324 325 325 321 321 324 323 320 322 327 324 321 320 314 311 312 311 312 312 312 312 312 311 310 310 309
308 308 308 309 311 313 315 314 314 314 315 315 316 316 317 318 318 317 316 318 322 320 318 317 318 318 318 318 318 319 319 319 319 319 319 318 319 318 317 317 319 320 321 320 321 321 321 321 319 321 323 323 323 323 326 327 325 327 328 326 324 326 325 324 326 325 327 330 326 320 326 336 334 327 322 315 312 313 311 310 311 311 311 311 310 309 309 309
308 309 310 310 313 316 316 315 315 315 315 316 316 316 317 317 317 316 317 323 325 321 320 319 319 320 319 319 319 318 320 319 318 319 319 318 319 319 319 319 319 320 320 320 321 321 322 320 320 324 325 325 324 323 327 327 324 325 327 327 326 325 324 324 326 327 329 330 325 322 328 332 332 329 324 318 315 315 312 309 309 309 310 310 310 309 308 308
309 309 310 312 314 317 317 316 316 315 316 316 316 316 316 317 317 316 319 324 324 321 321 321 320 320 319 320 319 319 322 321 318 319 319 319 319 318 321 320 319 319 318 320 324 322 322 322 323 324 325 327 324 324 327 324 325 328 325 327 330 325 324 326 326 326 328 328 323 322 326 326 325 326 323 320 319 317 314 311 309 308 309 309 309 309 308 307
311 311 311 312 315 317 317 317 317 316 316 317 316 315 316 317 316 317 321 324 323 322 323 321 318 319 319 320 319 319 320 320 320 319 318 318 318 317 319 320 320 321 318 320 325 322 319 323 325 324 324 324 324 327 328 323 325 327 322 325 330 328 327 328 327 326 325 324 322 322 323 324 326 328 322 318 319 319 316 313 310 308 308 309 308 308 307 307
313 313 313 313 315 316 316 317 317 317 316 317 316 314 316 317 317 321 323 321 322 322 320 319 319 318 319 319 319 318 317 317 319 318 316 317 317 317 318 318 318 320 319 319 324 323 320 320 321 323 324 324 325 326 325 326 325 321 320 324 327 327 327 327 327 326 323 324 324 323 323 323 327 330 323 317 319 321 318 314 310 307 308 309 308 308 307 306
315 314 314 314 315 315 315 317 317 317 316 316 315 314 316 317 317 323 323 321 325 325 316 317 319 318 319 320 319 318 316 315 315 316 316 316 316 316 317 317 317 320 323 322 323 321 317 315 315 319 322 320 321 318 316 321 321 318 322 326 327 327 327 327 327 324 323 324 324 324 323 322 325 330 326 321 322 321 319 318 312 307 307 308 308 307 306 306
318 316 315 314 314 314 315 317 317 316 316 316 315 314 316 319 321 324 323 319 323 323 315 316 319 318 320 322 321 318 315 315 314 315 317 316 316 316 317 319 319 322 325 323 324 321 316 317 317 317 316 315 319 318 315 317 316 319 327 327 326 327 326 325 323 321 324 324 322 322 322 320 323 331 329 321 321 320 320 322 316 308 307 307 307 307 306 306
320 319 317 314 314 315 315 316 316 315 316 316 316 315 318 322 324 324 321 317 320 322 319 319 319 319 320 322 322 319 317 316 314 316 318 317 318 317 318 322 322 324 326 323 324 322 319 321 318 316 315 315 322 323 319 320 320 321 326 325 325 325 324 325 322 321 323 322 319 317 319 320 321 325 324 319 320 318 316 317 314 308 307 307 307 306 305 305
321 320 319 316 315 315 316 316 315 314 315 316 316 317 320 323 324 323 321 320 322 322 320 320 319 320 321 322 323 319 318 318 315 316 318 317 318 318 318 321 321 325 329 324 321 323 324 322 318 317 317 316 321 323 321 322 321 320 322 324 326 324 323 326 324 321 323 322 318 315 317 322 322 321 320 319 317 314 311 312 312 310 309 308 307 306 306 305
321 321 321 319 317 316 316 317 316 314 315 317 316 318 321 322 322 323 322 321 322 320 319 320 320 319 320 322 323 320 319 320 316 316 319 318 319 320 319 320 319 322 328 324 320 323 325 325 322 320 319 317 319 320 321 322 319 318 320 322 324 324 326 328 324 324 325 322 316 315 319 325 326 323 316 312 310 310 310 311 310 310 309 308 307 305 305 305
321 321 322 321 319 317 315 316 317 315 316 317 317 319 321 321 321 323 323 322 321 320 318 319 319 320 321 321 321 319 320 321 317 317 320 319 319 320 319 319 317 320 325 324 322 321 323 327 324 318 316 318 318 317 318 320 319 318 319 320 323 325 327 327 324 322 322 321 317 316 322 326 323 318 311 308 308 308 309 309 308 308 307 306 306 305 305 305
322 321 321 322 321 319 317 316 316 316 316 317 318 320 321 321 322 323 322 321 321 320 319 320 320 322 322 321 320 319 319 321 319 318 319 318 318 319 318 318 317 318 321 322 323 323 323 324 320 314 315 315 316 316 315 318 321 319 318 320 323 324 324 325 323 318 318 322 320 318 321 323 318 316 312 310 311 309 307 307 306 307 306 306 306 305 305 306
322 321 321 322 321 321 319 317 315 315 316 317 319 319 319 320 322 322 321 320 319 319 320 321 322 322 322 321 321 320 319 321 319 318 320 319 319 319 318 318 317 317 319 320 323 325 325 323 317 315 318 313 311 314 314 314 318 320 320 320 320 322 323 324 324 321 319 322 322 318 319 321 320 320 315 311 313 312 309 308 305 304 305 305 305 305 306 307
321 320 320 321 321 321 320 318 317 316 316 317 318 318 319 319 320 321 320 319 319 319 320 322 321 321 322 322 321 319 319 321 319 318 321 320 320 321 318 318 318 316 317 318 321 324 325 324 317 314 317 314 311 315 317 315 314 318 320 317 319 324 324 323 323 324 323 323 324 321 318 318 319 320 318 314 314 314 311 309 307 304 304 304 305 306 306 306
321 320 319 320 321 320 320 320 318 316 316 318 317 317 318 318 319 320 320 317 318 320 320 321 321 321 322 321 321 319 318 320 319 318 321 320 320 320 317 318 319 317 316 317 320 322 323 324 320 314 314 314 313 316 320 319 315 315 316 315 318 322 322 322 322 322 323 323 325 323 319 321 321 319 320 319 314 312 311 310 308 305 304 304 306 307 307 306
320 318 318 319 319 320 320 319 317 316 317 317 316 316 318 318 318 319 320 317 318 320 320 321 322 321 321 320 320 320 318 319 318 318 321 320 320 320 317 318 320 318 317 317 319 321 320 322 321 315 313 315 317 318 318 319 317 316 317 317 318 318 319 322 321 321 325 324 326 324 321 328 327 319 318 317 313 311 310 310 308 305 305 306 307 308 308 307
319 318 319 319 318 320 319 317 315 316 316 316 315 315 316 317 318 319 320 318 318 319 320 321 321 321 321 320 320 319 318 318 318 318 320 319 320 322 318 317 320 320 318 318 321 323 321 321 321 317 314 316 319 318 315 316 317 316 317 317 318 317 318 321 320 320 322 322 327 325 321 329 327 315 316 317 312 311 309 308 308 306 306 307 308 309 309 308
318 318 319 319 319 320 318 316 316 316 315 314 313 314 314 317 319 319 320 319 319 319 319 322 323 321 321 320 319 319 318 318 318 318 319 318 319 322 318 316 318 318 318 320 321 321 320 321 321 318 317 317 319 316 311 313 317 316 316 318 320 317 317 321 322 322 320 320 323 321 320 328 322 312 314 314 309 309 308 307 307 306 307 308 308 309 309 309
317 317 318 318 319 319 317 316 317 316 314 313 313 314 314 316 318 319 320 320 319 320 320 322 323 321 322 321 320 319 318 319 318 318 319 318 317 319 316 315 317 316 316 319 319 317 318 321 321 319 317 316 317 315 310 311 315 316 317 318 318 317 316 319 322 323 321 320 321 319 320 327 321 310 309 306 304 307 308 307 307 306 307 308 308 309 309 309
316 316 317 317 318 318 317 317 316 314 313 313 314 315 314 315 317 318 319 319 319 321 320 320 321 321 322 322 321 320 319 320 320 317 318 319 316 314 313 314 317 317 316 319 319 317 318 321 320 321 321 318 317 316 313 312 313 315 318 317 315 316 316 317 317 319 319 320 322 320 320 325 321 312 308 307 308 309 307 307 308 307 307 308 308 309 309 309
315 315 316 316 316 317 316 317 316 313 313 313 314 315 315 315 316 317 319 318 318 319 320 319 320 320 322 322 321 320 319 321 323 319 317 318 316 311 310 312 315 316 316 317 316 317 320 321 320 321 323 322 321 320 318 316 314 314 317 316 315 316 316 317 317 317 318 319 319 319 322 324 318 311 310 311 312 311 308 307 308 308 309 309 308 309 309 309
314 314 315 315 315 315 315 316 315 313 313 314 314 315 315 316 316 316 318 318 318 318 318 319 319 319 322 322 322 321 319 320 323 321 318 319 319 312 308 310 312 313 314 315 314 316 320 321 319 320 321 322 322 321 318 317 316 315 316 315 315 315 315 316 317 317 318 318 318 318 321 322 316 311 313 312 313 315 311 308 308 308 309 309 309 310 309 309
312 314 315 315 315 314 313 314 315 314 313 313 314 314 314 316 317 317 318 319 318 318 318 319 319 320 321 321 322 322 321 319 321 321 319 318 316 310 307 308 310 311 313 313 314 317 320 319 317 319 320 319 321 321 317 316 316 316 315 315 315 315 315 316 317 317 319 319 319 319 320 321 316 314 315 313 313 315 311 307 308 309 309 309 309 309 309 308
311 312 313 313 314 315 314 314 314 315 314 313 313 313 314 315 316 317 318 318 318 318 318 319 319 319 320 320 321 321 321 320 320 319 318 317 314 311 309 309 308 309 311 312 312 315 319 318 316 318 318 317 319 319 318 317 316 315 315 315 315 315 315 316 316 317 318 318 318 319 319 320 316 314 315 313 311 311 309 307 309 310 309 309 309 309 309 308
309 310 311 311 312 313 313 314 313 314 315 314 313 314 313 314 315 316 317 318 318 317 318 319 319 319 319 320 320 319 320 321 320 319 317 316 315 313 313 313 310 307 309 313 312 312 316 318 316 317 317 317 317 317 316 316 316 316 316 315 314 314 314 315 315 316 316 316 317 319 319 319 317 314 314 311 309 309 309 308 308 309 309 309 309 308 308 308
307 308 308 308 310 310 310 312 313 314 315 315 314 314 313 313 315 315 316 317 318 318 317 319 319 318 318 319 319 319 319 319 321 319 317 316 315 314 315 316 312 308 308 312 313 311 314 317 316 316 316 316 316 316 316 316 316 316 316 315 314 313 313 314 315 315 316 315 316 318 318 318 316 313 310 309 309 308 308 307 307 309 309 308 308 308 308 309
304 305 305 306 308 309 310 311 313 314 315 314 315 314 313 313 314 315 315 316 317 317 317 318 318 317 317 317 317 318 317 318 319 317 315 316 316 315 315 314 312 311 309 310 313 312 313 315 315 315 316 317 316 316 315 315 315 315 316 315 314 313 313 313 314 315 316 316 316 316 316 317 316 311 308 308 308 308 307 308 308 309 309 309 309 309 309 309
303 303 303 303 305 308 310 311 313 314 314 314 314 314 314 314 313 314 315 315 315 316 316 317 318 317 316 316 316 317 316 316 317 314 314 316 315 314 314 312 312 313 311 309 312 312 312 314 315 315 317 317 317 317 315 314 315 316 316 315 314 313 313 313 313 314 314 315 316 315 315 317 316 312 311 311 310 309 309 309 310 310 310 310 310 310 309 309
Wind_Speed
13 12 12 12 12 11 11 11 11 10 10 10 11 11 11 11 10 9 8 6 5 4 2 1 0 1 1 1 2 3 6 7 6 7 7 4 2 1 3 6 7 7 5 4 3 4 5 6 5 4 4 5 5 7 6 6 9 5 2 5 2 2 1 1 2 3 6 4 4 4 3 4 4 4 3 0 2 1 3 5 6 7 6 4 3 3 3 3
13 12 12 12 12 11 11 11 11 11 11 11 11 11 11 10 9 9 8 6 5 3 2 1 1 1 1 1 2 4 5 6 5 6 8 5 2 7 9 10 9 9 8 7 5 4 5 4 2 2 4 3 3 5 5 6 8 5 3 4 1 2 1 2 5 5 6 7 7 6 2 4 4 4 3 0 2 1 3 6 8 8 7 5 3 2 3 4
12 11 12 12 12 12 12 12 12 12 12 12 12 11 11 10 9 8 7 6 5 3 2 1 1 1 1 1 2 4 7 5 2 3 6 4 7 12 12 10 8 8 8 8 6 5 4 4 3 4 5 2 2 4 4 6 6 3 4 4 2 3 3 6 10 9 7 9 9 7 3 3 2 2 3 2 2 2 4 7 7 9 8 5 3 3 5 6
11 11 11 11 12 12 12 12 12 12 12 12 11 11 11 10 9 8 7 6 5 4 3 2 2 1 1 2 3 5 8 4 2 1 3 6 10 12 10 7 5 6 7 7 5 5 5 5 5 4 4 1 2 5 4 6 5 3 3 4 4 3 4 5 8 8 7 7 6 5 2 1 1 3 3 2 1 2 5 9 8 10 9 5 3 6 8 9
11 11 11 11 12 12 12 12 12 12 12 11 11 11 10 10 9 9 8 6 5 4 4 3 3 2 2 1 4 6 6 3 3 4 4 7 9 9 6 3 3 5 7 6 4 6 5 5 5 4 3 0 2 4 3 6 6 4 2 4 4 5 4 3 7 5 3 3 2 2 1 1 2 3 3 2 3 3 6 10 9 9 7 5 6 9 8 6
11 11 11 11 11 12 12 12 12 12 12 11 11 11 10 10 9 9 8 7 6 5 5 4 3 3 2 1 4 4 4 1 4 4 5 7 8 6 2 2 4 6 5 4 3 5 4 3 4 5 3 1 3 3 2 4 5 3 1 3 7 6 5 6 5 4 2 2 3 1 2 2 2 2 5 5 6 6 7 9 8 6 5 5 6 7 4 4
11 11 11 11 11 12 12 12 12 12 12 12 11 11 11 10 10 9 8 7 7 6 5 4 4 3 2 2 3 2 2 1 6 5 5 7 7 5 4 5 5 5 4 2 2 4 3 3 4 4 4 4 4 3 2 3 4 3 1 2 5 5 5 6 5 4 3 3 4 2 2 4 3 2 4 5 7 8 9 8 6 4 3 4 4 4 5 6
12 12 12 12 12 12 12 12 13 12 12 12 12 11 11 10 10 10 9 8 8 7 6 5 5 4 2 2 2 2 3 3 7 6 6 7 6 7 7 6 4 4 3 1 2 3 4 5 5 3 3 3 3 3 2 3 4 4 1 2 1 1 2 5 5 5 5 5 5 5 6 8 7 6 5 5 9 10 9 7 4 4 3 4 5 6 7 6
14 13 13 14 13 13 13 13 13 13 13 13 12 12 11 11 10 10 9 9 8 7 6 6 5 4 2 1 1 3 1 5 6 5 5 5 6 6 6 5 3 3 1 3 4 3 3 4 5 3 3 2 3 3 4 4 2 2 1 2 3 3 3 5 7 8 7 6 6 6 8 10 9 8 6 7 12 10 8 6 5 5 5 6 6 7 7 5
14 14 14 14 15 14 14 14 14 14 14 13 13 12 11 11 11 10 10 9 8 7 7 6 5 4 2 1 2 2 2 5 4 3 2 3 3 4 3 2 1 1 0 4 5 3 3 3 3 3 2 2 4 2 3 3 1 1 2 5 6 8 9 8 10 11 10 8 9 7 7 10 7 5 4 8 13 11 9 8 6 7 7 7 7 6 6 4
15 15 15 15 15 15 15 15 15 15 14 14 13 13 12 12 11 11 10 9 9 8 7 6 5 4 3 3 3 3 2 4 3 3 2 3 4 4 3 2 0 1 0 3 4 3 2 1 1 1 0 2 3 2 2 3 3 1 3 6 9 9 11 11 12 14 11 6 11 11 5 7 3 4 6 11 14 11 10 9 8 8 7 7 6 6 5 4
16 16 15 15 16 16 16 16 16 16 15 15 14 13 13 13 12 11 11 10 9 8 7 7 5 5 4 5 7 6 4 5 5 5 6 6 6 6 5 4 2 1 2 2 2 3 3 2 1 1 1 2 1 2 2 2 1 1 1 3 7 6 7 11 13 16 12 4 9 9 2 6 4 5 5 11 14 11 10 11 10 9 7 7 6 6 5 3
17 17 16 17 17 17 17 17 17 17 16 16 15 14 14 13 13 12 11 10 9 8 8 7 6 5 4 6 7 5 5 7 8 9 10 9 8 8 7 6 6 4 4 4 3 2 2 2 2 2 2 2 0 1 1 1 1 2 1 2 3 6 5 8 8 14 11 4 10 8 1 6 6 5 8 11 14 13 12 13 12 10 8 8 7 6 5 4
19 18 18 18 18 18 19 18 18 18 18 17 16 15 14 14 13 12 12 11 9 9 8 7 6 5 5 6 6 6 7 8 10 11 10 9 8 8 9 8 7 6 5 5 4 4 3 3 3 3 2 1 1 2 0 1 2 1 1 1 1 2 4 7 1 13 9 4 11 8 1 6 6 6 12 13 14 15 14 15 14 12 11 10 9 7 6 5
20 20 20 20 20 20 20 20 20 19 18 17 16 16 15 15 14 13 12 11 10 9 8 7 6 5 5 6 7 8 9 10 13 13 11 11 10 9 9 9 7 6 4 3 4 3 3 5 4 2 3 2 2 2 2 3 1 1 1 3 2 2 5 7 1 12 8 3 9 7 1 6 6 8 14 13 16 16 16 16 16 15 13 12 10 9 8 7
22 21 21 21 21 21 21 21 21 20 19 18 17 17 16 15 14 13 12 11 10 9 7 6 6 4 3 6 7 7 10 13 13 12 11 11 11 10 9 8 6 5 4 3 3 4 5 6 4 3 4 3 3 4 4 4 4 2 2 3 3 2 3 4 1 5 6 5 5 5 3 3 5 10 15 14 17 18 17 18 18 17 16 14 13 11 9 8
23 23 22 22 22 22 22 21 21 20 19 18 17 17 16 15 14 13 12 11 10 9 7 5 5 5 5 7 8 10 13 13 11 10 8 9 11 10 9 7 5 4 4 4 5 5 6 6 4 3 2 1 2 5 4 2 3 3 0 2 4 3 2 1 3 5 5 6 4 5 4 5 6 8 16 17 18 20 19 20 22 20 17 16 14 12 10 10
25 24 24 23 23 23 22 21 20 20 19 18 17 16 15 14 14 13 12 12 10 6 6 8 5 1 7 12 11 11 12 11 10 10 8 9 10 9 7 5 4 5 5 5 5 7 6 4 3 1 1 0 1 5 2 4 4 2 3 2 3 2 2 3 3 3 5 4 4 5 5 9 9 7 14 19 19 21 21 20 22 21 19 17 15 13 11 11
26 25 24 24 23 22 21 21 20 20 19 18 17 16 15 13 12 12 12 12 11 7 3 10 13 4 2 9 12 11 9 8 8 9 9 10 10 9 7 4 5 7 7 4 3 8 8 3 3 1 1 3 5 6 7 8 7 6 5 4 3 2 4 4 4 4 6 4 5 7 6 8 9 7 11 18 20 23 21 17 19 21 19 19 16 14 13 12
27 26 25 24 23 22 20 21 20 19 18 17 17 16 12 10 6 7 12 16 18 16 7 8 14 10 3 4 10 11 9 9 9 9 10 10 11 10 9 7 7 6 5 5 3 7 8 4 2 5 6 7 8 9 9 8 6 5 3 3 4 4 4 4 3 3 4 3 6 8 7 7 8 7 9 17 20 20 19 15 19 23 21 21 18 16 15 13
27 26 26 24 23 22 21 21 20 19 18 17 18 15 11 12 7 4 10 15 19 22 18 12 12 13 8 5 8 10 9 9 10 10 9 11 12 10 10 9 6 3 5 5 4 4 7 5 7 9 9 9 8 9 9 8 7 6 4 4 3 3 5 5 2 2 2 2 5 5 5 7 8 8 10 12 14 16 22 21 21 24 22 21 19 17 17 14
27 27 25 24 23 22 21 20 19 19 18 18 20 17 13 14 13 7 6 8 12 17 19 19 18 17 14 10 10 11 11 9 9 11 12 15 15 11 11 10 4 3 4 4 4 2 4 5 8 11 9 8 7 6 7 6 5 4 3 3 3 3 3 5 3 1 1 2 4 5 5 7 8 9 11 11 15 16 22 24 24 26 24 22 20 19 19 16
28 27 25 25 23 21 20 18 18 19 19 19 20 19 15 13 14 10 5 4 9 13 17 19 22 24 21 14 13 16 15 10 10 14 15 17 18 14 13 10 5 4 4 5 5 5 4 6 11 14 10 7 7 6 6 4 2 4 4 4 3 3 2 3 4 3 2 2 3 4 5 6 7 10 10 8 13 13 14 19 22 25 24 22 22 20 19 18
28 27 26 24 22 19 17 16 18 18 18 20 20 19 16 13 11 8 5 4 6 11 18 19 21 25 27 21 17 20 19 15 14 16 19 21 20 14 12 12 7 4 5 8 9 8 7 6 9 12 9 7 7 6 6 5 3 3 5 5 4 4 5 6 3 1 2 4 2 2 5 5 5 9 7 2 5 9 10 15 18 20 22 20 20 19 18 16
28 28 26 24 21 16 13 15 20 18 18 20 20 19 17 13 9 5 2 3 5 7 11 16 17 20 25 23 19 19 18 17 16 16 19 24 22 12 9 13 9 4 7 9 8 8 9 8 5 7 7 8 8 6 6 7 5 4 5 7 7 7 7 6 1 3 3 5 3 1 3 5 4 5 5 0 2 5 6 11 15 17 19 19 19 19 17 15
28 28 27 24 19 14 15 18 19 18 18 20 19 18 18 13 8 5 3 2 4 4 4 10 12 12 17 20 20 16 9 10 15 18 19 23 25 15 7 8 7 5 8 6 4 4 5 10 8 6 7 8 8 7 6 7 5 3 5 6 8 8 7 6 2 2 1 4 3 3 2 6 5 5 5 3 4 6 6 7 12 16 18 19 20 19 17 16
28 28 27 24 20 19 22 20 18 18 17 17 17 18 18 14 10 5 4 3 5 6 8 8 10 9 12 19 25 17 3 5 13 17 23 24 25 18 8 6 5 5 6 4 4 3 3 9 8 7 8 7 7 6 6 7 6 4 5 4 6 6 7 6 5 3 3 3 3 2 4 4 6 6 6 6 7 8 8 8 10 15 18 19 20 19 18 17
27 27 26 25 24 26 26 21 20 20 16 13 15 19 18 16 13 8 5 2 3 6 6 6 9 9 12 20 27 17 5 10 9 12 24 26 23 16 8 7 6 6 7 6 5 4 2 8 9 9 8 6 6 4 5 9 5 5 5 5 6 6 5 5 5 2 1 2 4 2 5 3 7 5 3 4 7 9 12 11 11 16 21 21 21 20 18 18
25 26 27 26 27 29 27 20 20 19 14 11 15 20 20 19 13 6 3 3 2 5 3 7 9 9 15 19 18 11 8 7 3 9 21 21 19 11 4 8 6 4 8 7 6 3 0 5 6 7 7 6 4 0 2 7 5 4 4 6 6 5 5 5 4 3 2 2 5 6 6 3 6 5 1 2 5 10 11 8 10 17 22 22 21 21 19 19
24 24 26 27 28 30 27 23 22 18 15 14 19 24 24 18 9 4 1 4 2 3 4 8 7 9 16 13 4 5 6 2 4 11 14 11 13 8 2 6 4 3 2 3 2 2 1 1 1 2 4 5 6 4 5 2 8 8 6 7 7 6 5 4 3 4 2 4 6 9 9 6 4 5 3 4 5 7 5 4 7 14 20 22 21 21 21 20
23 24 25 27 30 30 30 31 27 21 19 18 23 28 23 9 3 3 6 1 2 2 4 4 3 8 15 11 5 6 4 2 6 11 7 4 7 5 3 4 2 2 2 4 3 3 3 1 1 1 4 6 8 5 7 4 7 9 5 5 4 4 4 4 4 4 1 6 5 8 10 9 6 6 3 5 6 5 6 6 8 13 20 24 23 21 22 21
25 24 25 27 30 30 32 35 28 21 20 20 25 27 17 4 1 7 6 3 2 4 5 4 3 6 11 10 7 7 5 3 6 7 5 3 4 6 5 5 5 2 2 5 3 2 2 3 2 1 3 6 7 4 4 6 3 5 5 6 4 1 2 2 2 1 4 6 3 4 5 5 8 7 7 8 7 6 6 9 13 18 23 25 25 24 23 22
28 27 28 29 31 33 34 31 24 22 22 23 25 19 7 3 8 11 9 4 1 3 5 5 5 7 10 8 4 5 4 2 6 6 3 4 4 5 4 4 6 3 2 6 4 2 2 5 2 2 2 7 9 6 3 1 2 6 6 6 5 3 1 2 3 2 4 5 3 1 3 3 5 6 9 9 5 5 6 8 15 23 26 27 27 26 24 23
32 30 32 33 32 34 35 31 27 26 26 26 22 11 4 7 11 11 12 7 1 2 4 5 6 7 7 5 4 7 5 2 6 6 3 5 4 5 4 6 8 3 3 3 3 5 4 5 5 7 4 10 12 8 7 5 5 6 5 6 6 5 4 4 4 4 4 3 3 1 3 4 3 3 7 5 2 1 1 7 14 20 24 25 25 25 24 24
35 33 35 37 36 36 36 36 33 29 29 26 16 8 8 10 10 10 10 7 3 2 3 6 8 7 5 3 2 6 4 2 6 6 4 6 5 6 6 7 10 6 4 4 2 4 6 6 5 5 5 12 12 7 7 8 3 3 3 4 4 5 5 3 3 5 3 1 2 2 3 4 4 3 4 4 5 5 5 10 15 17 20 23 24 25 25 25
39 40 39 41 45 42 38 40 37 33 34 24 11 10 13 11 7 6 7 7 6 6 7 6 5 4 5 3 3 6 3 2 6 5 4 5 4 5 5 5 11 11 8 7 3 2 4 4 3 2 3 6 8 5 6 7 4 1 2 4 5 5 6 3 3 1 2 2 3 3 4 4 2 3 3 3 3 4 3 8 15 18 21 24 25 27 26 26
45 46 46 47 48 43 41 42 38 38 38 23 10 11 10 8 6 5 5 7 9 10 10 5 4 5 6 4 4 8 3 2 6 5 3 3 3 7 7 5 12 16 13 9 4 2 5 2 3 2 1 3 2 3 2 2 6 5 4 6 3 1 2 3 1 2 1 3 4 4 6 4 2 3 2 1 3 4 3 5 11 16 21 25 27 28 27 26
49 44 45 48 46 43 44 44 42 43 35 15 9 11 6 6 7 5 7 9 11 11 8 6 7 5 7 6 5 8 7 4 6 5 4 3 4 8 10 7 10 18 20 15 6 2 4 3 3 1 2 2 2 3 1 2 3 5 3 5 4 1 2 3 2 2 2 4 4 3 5 6 5 5 4 6 9 9 8 7 8 13 21 25 28 29 27 26
42 35 35 45 47 46 46 47 49 47 27 8 9 11 5 7 8 5 10 12 10 10 8 8 7 4 6 7 6 8 8 6 8 6 4 5 4 6 11 9 9 16 24 19 7 2 2 3 3 2 1 1 2 2 4 3 1 3 2 2 1 1 3 3 3 3 3 4 3 2 2 5 6 7 9 12 14 13 12 10 10 16 24 29 30 30 29 28
30 22 21 36 43 44 48 49 47 35 15 7 11 8 3 7 10 12 17 15 8 8 8 7 7 6 6 7 7 7 7 6 8 7 4 6 4 4 9 11 6 10 20 19 7 1 1 1 3 2 3 0 2 3 7 8 5 2 3 4 3 1 2 1 2 2 4 3 3 2 4 6 5 4 10 14 14 13 15 14 13 19 26 30 30 30 30 29
22 11 10 24 32 41 48 41 26 16 8 7 10 9 6 5 7 14 20 18 9 5 5 7 9 8 7 7 7 7 7 5 7 7 4 6 5 3 6 11 9 8 10 10 7 3 1 1 3 2 1 2 5 6 5 5 5 4 4 5 6 5 4 2 4 2 3 3 4 3 5 7 4 2 5 9 9 11 18 19 15 20 27 29 29 28 27 25
17 6 6 17 26 39 44 25 9 10 8 10 14 13 9 5 5 12 17 17 10 3 2 4 7 9 7 6 6 6 7 6 7 7 5 7 7 4 6 11 14 15 10 5 5 4 4 3 3 2 3 5 6 5 3 4 3 2 3 3 4 5 5 5 5 4 2 2 3 3 4 7 4 2 3 6 6 12 23 22 17 21 28 30 30 27 24 21
17 9 7 14 24 38 35 12 7 11 7 11 16 15 15 10 6 9 12 14 8 3 4 3 3 7 5 4 6 7 8 6 8 9 5 5 6 4 7 13 15 15 10 3 2 4 5 3 2 1 2 2 4 4 1 2 3 2 5 5 6 5 5 5 4 4 3 4 3 2 5 7 5 3 3 4 4 10 19 21 19 22 27 29 29 25 22 20
18 15 11 15 27 36 25 6 7 10 8 11 12 13 18 14 10 11 10 12 10 4 4 3 2 5 5 4 7 9 9 7 7 9 5 4 5 4 6 13 14 10 6 5 7 8 5 3 3 3 2 2 2 2 2 1 3 5 5 5 7 7 5 3 1 2 3 6 8 5 7 6 4 4 3 2 3 6 12 19 22 24 26 28 26 23 21 21
13 11 11 19 34 36 22 11 12 9 9 13 12 13 16 12 16 21 14 13 15 9 6 6 6 5 3 3 5 8 11 8 4 6 5 3 3 2 4 10 11 8 6 10 15 15 7 3 5 6 6 7 5 3 4 3 3 4 3 6 9 12 12 7 2 3 6 4 8 7 8 5 3 3 3 1 5 7 8 15 19 20 23 25 23 22 22 22
8 6 5 13 29 30 18 15 17 10 8 12 9 11 15 10 14 22 19 15 17 15 7 4 7 7 3 5 7 7 9 7 3 4 6 5 3 2 3 7 7 7 8 14 21 16 4 2 8 9 9 10 6 3 4 5 6 6 8 11 12 14 16 10 4 8 6 3 6 9 6 4 5 3 3 5 6 7 7 11 13 15 19 22 22 22 21 21
6 5 5 6 13 17 13 10 10 9 11 13 6 6 16 14 7 12 17 14 16 18 9 1 7 10 8 11 10 8 9 8 6 6 6 6 3 2 1 3 3 6 8 13 19 13 3 5 12 12 13 13 6 4 4 6 9 11 11 13 14 13 15 13 13 13 6 4 10 9 9 9 9 8 8 8 7 5 6 11 14 16 19 21 21 20 20 20
6 5 8 8 5 6 9 11 9 8 12 14 7 5 12 15 8 8 11 10 12 17 10 2 9 15 15 16 11 6 8 7 8 7 5 4 4 2 1 1 1 3 3 5 9 6 3 7 10 10 15 17 8 5 5 5 6 7 9 14 14 14 17 18 20 17 10 10 14 8 12 14 9 8 10 9 10 11 12 17 18 18 19 19 18 19 21 21
7 5 5 7 5 3 8 15 13 9 11 13 9 8 10 15 15 10 6 4 7 13 12 8 13 16 15 14 11 8 9 9 10 9 7 6 5 4 3 1 1 3 3 3 2 3 3 6 6 8 12 16 12 9 6 5 5 6 9 13 14 18 20 19 21 19 15 17 14 6 11 12 5 8 11 11 15 17 16 17 18 16 17 18 19 21 21 19
6 4 2 2 5 4 5 9 10 8 9 11 10 11 11 14 17 12 7 7 7 8 11 13 14 12 12 11 11 12 13 14 13 10 9 8 5 4 4 3 3 3 3 3 1 2 4 4 4 7 7 13 13 10 8 7 8 9 11 14 15 17 16 16 19 17 15 18 11 6 8 9 5 8 10 9 13 14 14 16 18 17 18 19 20 20 18 17
9 6 3 3 3 4 3 4 6 6 7 7 7 9 11 15 17 12 8 13 14 10 11 16 15 9 9 10 11 14 18 18 14 11 16 16 11 11 9 6 9 7 4 5 4 3 4 2 2 5 5 10 10 10 10 8 5 9 17 20 19 14 12 15 17 15 16 18 12 8 7 7 5 8 7 7 10 12 13 14 16 15 16 17 19 20 19 19
14 12 8 4 3 3 3 2 5 8 7 7 9 8 8 12 14 11 7 11 18 19 19 21 17 8 7 10 17 24 26 22 14 11 18 20 15 15 16 14 16 14 8 6 4 4 6 4 2 5 5 9 8 9 9 5 4 9 18 20 17 14 14 15 15 15 16 15 12 10 9 6 6 7 6 4 5 8 10 13 15 16 19 20 21 21 20 19
Wind_Direction
203 203 200 198 196 194 194 195 196 195 194 191 186 181 178 177 178 179 181 182 184 185 182 198 343 350 3 5 4 1 358 354 340 354 6 345 297 213 131 113 107 99 90 89 107 111 84 52 27 46 32 13 21 15 31 36 25 25 82 80 67 95 65 222 162 157 149 150 174 150 91 112 146 156 142 129 281 272 137 125 128 148 143 129 141 171 218 254
197 198 197 196 196 197 196 197 197 196 194 191 186 182 182 181 184 185 187 192 195 197 200 232 294 309 333 344 344 348 356 352 329 355 9 4 102 132 124 115 102 86 70 57 68 89 92 77 44 52 19 8 23 23 39 29 31 42 82 85 109 179 60 84 116 105 122 141 155 151 121 118 134 155 150 237 306 341 126 120 128 138 125 128 162 210 258 275
198 199 199 198 199 199 198 198 197 196 193 191 189 186 185 186 190 189 191 198 201 210 222 245 266 279 296 316 333 343 349 342 289 352 18 55 119 126 122 113 95 75 57 44 51 73 89 81 55 31 19 44 69 40 39 24 31 28 62 85 245 199 79 69 100 92 107 135 138 135 154 153 159 189 156 156 317 350 140 148 150 147 143 154 182 243 271 284
201 200 202 201 201 200 199 198 198 196 194 193 192 190 190 192 195 196 200 204 208 221 229 242 258 258 275 310 339 346 351 355 179 140 56 111 129 128 122 107 76 41 31 25 34 67 82 74 51 21 13 26 95 65 39 20 19 360 71 141 212 171 90 73 108 99 101 120 123 127 151 256 238 194 176 146 355 321 161 166 178 165 162 179 221 263 275 279
202 202 203 203 202 203 201 200 201 199 197 197 196 196 197 198 202 205 207 212 219 226 231 245 247 252 277 316 345 354 10 34 150 144 122 135 138 134 124 94 5 349 5 10 39 76 69 56 34 11 13 261 106 74 38 19 23 21 73 139 125 114 118 130 128 115 109 120 124 124 146 258 208 190 211 199 202 234 178 164 170 169 180 219 250 266 269 257
205 205 206 207 207 206 206 205 205 205 204 203 203 203 204 206 208 211 215 220 226 231 236 241 243 250 267 314 345 3 28 70 171 159 151 153 153 152 151 311 319 326 342 357 71 84 58 38 11 351 18 66 102 105 103 26 28 49 19 72 78 94 135 159 156 147 162 169 180 183 198 195 185 249 264 242 223 222 194 176 175 184 207 239 260 262 238 187
210 210 210 212 212 213 213 212 212 211 211 211 210 210 211 212 213 218 222 226 230 234 238 241 248 248 256 314 344 3 352 189 176 173 175 170 175 201 269 301 303 311 323 348 76 83 52 40 19 2 33 61 80 102 122 35 49 99 359 22 67 79 124 167 183 171 185 195 193 203 234 226 214 246 269 240 218 208 200 197 204 215 229 252 253 221 182 163
213 215 215 216 217 218 219 219 219 217 217 217 217 217 218 218 221 224 227 230 234 236 241 244 247 248 262 325 345 318 299 200 181 178 184 193 221 252 281 295 292 296 300 36 80 87 67 48 41 30 51 68 56 70 91 32 42 90 36 350 53 41 131 192 203 198 215 219 212 237 256 250 243 250 268 224 195 192 195 198 201 213 236 237 210 177 163 161
215 218 219 220 221 222 223 224 224 223 223 223 223 224 225 226 227 229 231 234 237 239 243 247 248 253 269 294 305 306 272 164 178 185 190 219 246 263 278 285 284 276 222 118 111 118 106 68 62 64 69 62 31 64 92 53 25 85 64 348 337 292 275 231 215 213 227 234 222 237 256 259 262 265 273 220 193 188 188 186 194 209 213 198 177 159 153 161
219 221 223 225 225 226 227 228 230 230 230 230 229 229 229 231 232 232 235 236 239 242 245 247 248 253 267 213 217 274 177 156 174 192 206 244 257 277 285 279 260 248 182 121 131 132 113 88 78 74 54 42 44 91 97 81 146 69 14 329 308 282 281 251 223 222 224 233 225 212 241 260 262 250 242 197 188 187 184 181 190 198 188 175 169 161 156 162
222 225 227 229 230 231 231 232 234 235 235 235 234 233 232 233 234 234 236 238 239 243 244 245 247 251 252 223 217 223 194 188 201 212 239 272 292 295 273 255 239 149 160 144 155 148 128 143 145 106 33 55 51 89 87 93 137 35 348 322 295 286 287 257 231 226 214 224 226 208 238 275 249 228 234 194 184 191 191 181 181 188 178 170 175 175 170 173
226 229 231 233 236 235 234 234 234 236 237 237 236 236 234 233 234 235 236 238 240 242 242 243 246 247 245 244 247 250 245 232 231 240 254 272 285 277 259 261 280 230 214 214 185 157 160 185 164 123 132 124 56 58 88 102 127 316 331 312 298 323 304 254 236 220 202 190 209 193 289 300 237 223 222 185 181 185 186 176 176 184 183 181 187 190 189 196
229 231 234 235 237 237 237 236 235 235 235 236 237 236 235 236 235 236 237 238 239 241 241 243 248 255 255 253 257 256 246 240 244 254 257 267 272 262 255 258 267 259 236 241 236 200 203 218 204 197 156 137 126 112 152 196 151 274 255 164 313 352 322 267 240 203 189 174 178 159 321 281 263 219 174 172 179 177 175 171 177 186 191 197 199 201 205 216
229 232 234 234 235 237 239 239 237 235 234 234 234 234 235 235 236 236 237 238 238 238 240 244 252 259 254 250 259 252 240 239 246 253 255 258 260 256 257 258 263 260 248 247 244 245 243 214 204 202 185 170 139 137 319 347 151 232 346 91 2 353 283 308 225 169 166 188 173 141 231 258 278 217 176 176 183 182 178 174 182 190 192 199 202 207 215 219
230 231 233 234 234 234 236 238 237 236 235 233 232 233 233 233 235 235 235 235 233 235 238 242 249 254 253 250 250 242 236 238 244 248 251 255 257 255 254 253 257 253 247 246 231 227 204 184 187 176 155 158 131 97 20 357 335 92 62 314 329 158 260 319 113 160 153 190 174 139 222 263 274 217 188 183 186 190 187 182 188 192 192 197 203 209 213 221
234 231 232 234 232 231 233 234 236 236 235 234 232 231 231 232 233 233 233 232 230 234 236 238 235 227 250 255 243 235 234 235 240 246 248 252 252 248 245 246 250 244 228 217 203 184 177 175 167 150 145 147 125 91 50 12 339 348 137 242 266 182 262 320 277 193 154 145 182 184 205 261 271 212 194 192 194 195 192 190 192 193 195 197 203 208 212 226
235 232 232 232 230 230 229 230 232 233 233 232 230 229 230 230 231 231 230 228 229 230 227 227 228 227 247 247 235 236 236 235 237 240 240 240 241 242 242 237 227 213 195 186 187 179 177 173 156 161 167 151 121 96 62 360 305 314 160 219 247 211 220 252 287 268 159 135 196 221 221 245 266 213 196 202 203 199 197 196 195 193 195 196 199 205 215 227
234 232 230 229 229 229 228 229 228 227 228 226 225 225 226 227 228 228 226 228 224 222 231 217 197 244 254 234 228 236 237 233 233 234 231 225 229 234 228 225 206 173 161 166 177 169 166 162 146 141 8 17 145 117 126 220 205 206 179 203 263 271 232 202 248 245 165 152 204 205 233 249 267 249 207 209 208 204 207 203 195 193 192 193 196 201 211 223
230 229 229 228 228 227 226 226 224 223 221 219 219 218 220 223 225 228 226 221 206 190 219 209 193 173 235 216 217 229 231 217 215 221 219 213 213 210 190 179 176 160 148 148 183 174 160 119 94 124 213 207 197 171 189 205 183 177 173 165 186 234 275 231 229 217 168 179 223 209 227 243 259 261 219 214 212 209 213 207 194 191 191 191 194 200 209 218
225 226 226 227 226 224 222 221 220 219 215 213 213 209 208 202 202 233 223 218 217 214 219 204 202 207 193 172 196 206 203 195 202 210 207 201 198 189 171 162 162 159 155 154 180 184 163 139 167 198 205 200 203 200 204 208 197 200 187 175 186 198 267 267 255 243 155 168 240 228 234 254 256 260 242 224 215 211 213 206 192 190 191 192 193 198 207 216
222 222 224 225 224 221 219 217 214 213 210 209 205 201 198 188 183 223 214 225 235 232 235 233 224 225 227 226 211 202 190 184 197 203 195 189 185 178 173 166 151 184 217 170 138 160 164 186 216 212 205 196 204 208 210 222 225 236 227 222 243 217 246 266 257 236 176 187 260 260 255 270 263 266 270 231 206 209 211 201 191 191 192 193 195 200 206 213
221 221 221 222 221 218 217 213 210 208 206 205 203 201 202 199 204 215 211 243 251 237 236 235 233 233 231 234 226 211 196 179 189 196 186 179 180 184 179 165 155 200 209 151 109 142 193 230 229 218 208 200 226 219 191 203 206 210 202 178 239 251 259 295 316 244 181 185 257 287 268 266 268 264 267 230 204 213 214 205 198 193 190 192 197 203 206 210
221 220 219 219 217 216 215 212 211 209 204 205 206 203 204 203 206 215 223 274 272 245 234 230 228 226 222 221 212 204 199 189 193 196 187 179 183 190 179 164 184 197 171 162 161 173 209 247 230 216 206 198 237 230 165 159 175 171 167 155 216 247 241 284 303 274 249 234 245 282 279 267 269 263 268 239 208 206 207 207 203 198 198 202 207 211 212 213
222 219 217 215 212 211 212 217 221 216 208 209 210 205 203 202 199 211 231 268 286 253 240 237 231 226 220 216 210 207 209 211 210 201 191 186 183 185 187 182 182 182 197 195 187 193 211 234 210 193 198 202 220 223 172 177 249 231 197 184 200 220 210 225 271 316 310 326 308 309 312 290 264 259 268 290 189 179 177 187 190 196 203 205 208 212 216 220
221 219 217 212 206 202 207 225 228 219 211 212 211 205 202 199 192 201 229 278 283 256 245 235 230 232 223 215 212 209 216 224 221 210 201 196 188 177 188 193 181 188 214 201 193 216 227 233 202 162 193 212 211 220 191 182 219 259 229 196 197 209 215 222 272 37 7 320 297 84 312 285 300 285 260 224 174 189 182 181 178 183 192 196 201 205 209 217
221 220 217 208 196 190 205 225 228 220 216 215 209 200 197 191 183 187 141 17 286 222 191 202 206 220 210 201 197 195 224 235 214 210 206 203 199 186 176 188 183 200 204 189 203 236 213 212 211 178 185 204 211 223 212 179 173 246 248 196 195 206 207 203 163 70 272 264 277 100 157 270 305 299 252 193 205 227 227 214 195 185 185 193 200 203 206 209
220 219 217 207 190 191 206 216 222 219 216 215 205 194 191 182 170 160 111 6 280 176 145 173 180 185 189 187 186 184 225 187 178 196 197 197 200 195 192 188 178 199 179 149 235 263 159 182 196 183 179 191 199 215 216 172 150 229 245 161 159 181 192 184 141 158 225 254 306 86 129 274 281 262 243 191 199 237 239 232 221 205 199 200 202 204 207 208
220 219 219 207 193 201 208 212 220 217 209 207 197 186 179 170 164 142 106 295 255 136 134 167 162 168 172 177 182 178 140 145 151 188 188 188 194 194 210 201 173 188 178 161 221 270 136 174 183 173 177 193 196 216 194 155 141 239 224 125 121 142 152 131 119 164 293 349 291 186 136 258 269 265 269 169 197 242 237 224 219 212 209 208 207 209 210 210
217 216 218 208 200 206 207 212 222 215 204 194 181 176 167 160 159 121 85 228 181 101 128 157 146 156 157 163 180 170 133 142 143 179 180 186 191 188 212 203 175 173 197 199 214 250 85 188 187 166 178 198 191 327 158 160 167 199 150 87 70 72 76 77 105 123 37 326 242 193 158 221 268 269 268 127 212 240 238 220 208 209 209 209 209 210 210 211
217 216 216 206 201 203 202 209 217 204 191 183 173 168 161 157 150 107 181 225 167 88 116 149 155 158 151 147 173 166 142 128 116 151 168 182 189 183 149 185 173 110 216 290 254 252 346 166 207 152 172 168 138 63 22 155 158 129 91 62 49 26 35 44 56 86 60 275 221 187 183 194 264 276 208 186 222 220 209 195 198 201 201 204 207 208 208 208
219 217 214 205 201 200 200 207 207 193 182 176 170 165 158 151 105 161 203 239 42 123 116 141 167 150 153 155 175 178 148 117 137 147 161 170 178 175 122 156 165 67 335 316 313 311 347 95 212 147 142 121 106 67 17 35 121 113 85 83 73 356 14 21 3 64 165 253 218 192 191 188 225 264 237 239 263 230 190 189 187 187 192 197 201 203 205 207
221 218 216 211 205 203 206 209 203 189 181 173 170 167 159 142 227 215 208 81 66 196 149 154 186 166 172 174 176 171 144 148 167 161 165 158 170 190 184 182 171 131 254 241 243 309 296 234 212 113 157 152 120 83 18 6 50 100 105 113 116 310 18 6 300 160 226 249 248 194 178 194 232 253 255 253 267 260 229 207 190 181 185 191 195 200 203 205
222 218 218 216 210 208 213 215 203 188 185 177 172 172 162 179 205 216 209 165 202 206 136 144 173 170 171 173 180 167 145 160 173 169 164 141 169 216 245 234 193 172 194 199 194 184 274 293 206 119 257 191 160 146 169 253 189 150 138 143 158 161 152 242 242 248 259 261 280 191 158 227 264 267 258 246 240 260 259 224 196 184 183 188 193 197 200 203
221 218 221 220 217 216 216 216 205 193 189 179 171 175 199 213 213 212 206 201 194 111 129 142 144 148 164 180 191 164 152 181 167 163 160 145 170 220 241 240 221 197 99 152 179 176 216 284 201 180 203 183 181 188 172 145 161 179 156 144 164 167 173 206 207 214 247 269 285 258 166 197 209 252 269 274 325 12 187 192 184 179 183 186 189 194 198 204
223 219 222 223 222 220 215 212 206 196 191 182 170 179 198 210 221 215 203 187 143 132 138 128 124 139 188 223 206 171 168 192 170 164 173 173 187 199 199 214 206 180 140 177 214 171 202 256 230 192 157 166 186 196 140 118 148 214 130 115 181 187 163 179 208 191 184 233 267 224 220 215 204 247 297 346 14 43 102 152 159 165 176 180 185 193 200 206
227 218 220 224 223 220 214 210 205 196 192 186 178 197 202 209 208 194 187 162 153 150 124 119 123 146 191 209 214 202 189 128 162 170 196 201 213 200 194 204 193 189 184 182 192 161 187 266 300 49 93 172 191 178 144 157 179 170 146 176 202 178 134 139 265 321 114 241 251 197 242 293 293 275 315 26 17 22 76 146 158 164 172 179 188 196 202 208
228 218 217 220 223 221 215 210 205 199 196 193 200 206 205 216 188 154 174 156 146 146 135 155 188 168 180 185 197 201 184 105 165 173 188 202 227 202 198 208 195 197 203 195 208 187 160 232 313 81 169 253 213 124 101 156 143 132 187 198 165 80 89 121 249 344 70 251 268 197 214 247 221 237 286 97 200 243 249 190 171 171 176 184 193 199 204 210
223 220 219 222 226 225 218 214 206 200 198 197 221 221 217 218 196 157 170 157 141 149 161 197 193 164 179 183 186 191 181 171 177 177 184 201 239 200 187 203 201 200 204 203 218 233 152 200 295 29 195 276 29 111 49 346 136 138 189 188 134 138 215 144 173 220 190 234 278 258 223 219 204 204 194 192 205 211 213 206 191 185 187 191 196 200 206 209
220 218 227 231 228 223 222 216 203 195 195 197 211 217 223 214 215 203 180 168 154 166 185 203 188 170 185 175 165 181 186 185 173 172 185 194 232 202 178 188 204 201 199 196 203 233 150 194 248 335 309 287 36 131 185 215 212 64 60 176 134 151 183 169 173 176 175 213 259 289 255 234 226 201 182 196 204 195 190 199 205 198 194 195 198 201 205 206
228 214 233 234 227 224 218 207 195 189 191 206 202 205 206 199 214 216 196 179 166 182 194 193 177 172 184 175 164 172 186 193 176 180 205 190 206 234 190 186 188 192 193 193 197 204 103 207 209 311 334 192 171 210 195 193 191 149 151 185 200 185 139 169 220 150 137 180 215 245 261 260 250 203 185 197 201 189 187 195 203 200 197 199 201 202 205 203
234 216 235 225 224 222 206 191 187 187 188 208 209 208 207 195 201 207 204 199 196 195 186 183 184 181 174 174 174 167 173 188 183 188 218 199 196 240 202 186 169 156 170 185 199 196 168 172 159 165 299 191 220 241 211 195 196 187 198 198 192 185 152 169 244 213 145 183 183 185 255 266 255 228 211 210 203 190 193 197 196 195 197 201 203 204 204 199
237 238 230 209 216 209 191 177 186 190 184 206 207 202 199 205 197 194 204 213 219 215 174 188 193 186 175 171 168 161 164 178 193 196 211 210 206 206 191 183 167 154 143 159 196 168 120 112 126 176 213 215 241 253 195 161 155 170 235 217 189 198 180 180 219 216 182 215 165 137 268 273 260 251 258 248 230 203 199 198 189 188 197 203 205 205 204 199
239 257 229 202 210 200 185 173 194 186 201 212 201 197 196 203 205 186 197 211 211 178 181 207 194 189 191 163 157 168 170 178 196 196 194 205 215 220 188 176 163 152 144 145 180 134 116 126 147 214 277 288 295 303 331 95 107 199 230 196 183 212 203 192 200 174 186 213 165 158 259 265 274 284 286 276 238 197 195 193 187 189 198 204 204 203 201 198
231 250 234 204 202 194 184 182 189 187 206 198 194 202 199 204 208 190 188 200 199 179 180 203 195 194 204 170 167 180 180 186 203 200 194 184 205 235 193 178 169 157 160 173 167 165 165 152 153 180 264 312 327 326 311 273 196 217 224 193 196 205 195 214 202 140 224 208 162 182 239 245 281 327 351 6 107 142 173 186 191 194 196 200 202 201 199 198
216 236 230 203 198 194 192 195 191 196 201 189 195 203 195 205 214 206 200 197 199 196 188 202 191 172 179 182 186 191 187 188 188 191 205 191 193 251 202 189 186 170 173 171 160 163 171 163 169 187 212 220 210 202 210 198 188 218 203 180 200 204 199 210 204 200 236 198 158 199 237 248 286 341 1 31 111 111 149 176 188 195 193 193 194 195 199 201
191 210 212 193 199 206 216 205 186 186 199 193 199 202 196 204 211 208 208 202 201 197 184 181 173 159 161 185 193 205 202 200 167 167 198 192 196 292 198 200 205 182 170 161 155 153 140 192 196 201 218 223 211 200 190 143 149 201 203 190 202 209 203 201 212 222 219 162 199 218 199 203 241 228 227 218 169 147 153 160 172 183 185 186 188 192 200 204
177 199 194 173 200 217 237 231 190 180 192 191 184 192 201 205 197 198 205 204 197 191 181 131 173 178 187 189 196 206 198 197 188 176 181 177 175 333 175 196 221 188 172 159 157 149 107 213 210 210 227 233 214 174 169 149 175 201 201 200 206 206 200 199 216 220 173 161 237 219 162 196 221 201 208 214 189 178 170 164 168 173 177 183 188 195 202 206
196 216 201 185 188 207 221 225 210 194 190 187 189 195 199 206 205 190 199 202 191 185 180 195 201 198 194 188 193 196 181 193 207 194 175 155 142 103 104 38 321 187 161 148 157 143 136 215 212 203 227 241 232 191 169 166 197 205 201 208 205 200 201 203 217 218 182 205 239 205 176 210 213 191 210 206 183 186 186 179 174 172 177 183 189 197 202 204
223 252 224 195 200 237 226 212 201 203 196 181 190 207 195 201 208 200 184 172 188 193 190 201 208 204 197 187 182 185 183 192 208 200 174 154 154 151 141 127 200 180 138 135 170 150 171 220 203 184 226 246 238 224 200 178 213 226 216 217 210 206 206 205 217 221 207 224 240 185 191 224 208 187 210 201 188 186 181 181 179 178 186 191 195 200 203 206
245 269 304 231 225 247 246 208 186 200 210 187 189 202 195 198 203 200 185 174 184 194 197 212 214 197 192 189 182 197 204 200 209 203 167 154 162 179 181 165 157 162 160 166 187 174 191 218 169 158 226 251 238 231 222 201 217 236 238 233 222 214 209 209 220 220 215 232 232 158 197 241 237 205 199 181 180 170 158 172 180 185 192 193 198 205 211 219
251 268 315 339 271 221 215 201 178 197 220 205 197 196 195 204 203 194 194 197 197 189 187 210 218 193 186 193 190 209 215 208 211 193 169 174 184 183 189 171 144 148 178 182 166 162 186 215 113 137 218 250 234 218 218 214 219 245 250 240 224 210 205 212 219 213 211 221 212 182 210 230 219 212 189 156 157 150 152 172 181 191 200 204 214 221 225 228
243 253 260 293 309 219 195 190 192 203 214 210 210 205 200 208 200 188 199 211 209 206 199 205 210 190 176 194 206 219 222 217 221 202 182 191 197 187 189 180 162 162 173 174 172 174 174 182 168 157 208 254 236 196 194 200 213 243 249 238 215 202 207 213 218 217 212 210 206 214 221 189 166 179 174 159 149 148 167 185 193 206 213 219 228 231 231 234